Change the Weather History Date:

Tuesday, June 10, 2014

  Actual Average Record
Temperature  
Mean Temperature 74 °F -  
Max Temperature 78 °F 85 °F 95 °F (2006)
Min Temperature 69 °F 67 °F 60 °F (2007)
Cooling Degree Days 8    
Growing Degree Days 24 (Base 50)    
Moisture  
Dew Point 69 °F    
Average Humidity 93    
Maximum Humidity 100    
Minimum Humidity 74    
Precipitation  
Precipitation 0.00 in - - ()
Sea Level Pressure  
Sea Level Pressure 29.76 in    
Wind  
Wind Speed 6 mph (SSE)    
Max Wind Speed 16 mph    
Max Gust Speed -    
Visibility 10 miles    
Events Rain    
Averages and records for this station are not official NWS values.
T = Trace of Precipitation, MM = Missing Value Source: NWS Daily Summary

Daily Weather History Graph

Daily Weather History Graph

Search for Another Location

Airport or City:

Trip Planner

Search our weather history database for the weather conditions in past years. The results will help you decide how hot, cold, wet, or windy it might be!

Date:

Astronomy

Jun. 10, 2014 Rise Set
Actual Time 5:44 AM CDT 8:14 PM CDT
Civil Twilight 5:14 AM CDT 8:43 PM CDT
Nautical Twilight 4:37 AM CDT 9:20 PM CDT
Astronomical Twilight 3:56 AM CDT 10:01 PM CDT
Moon 5:44 PM CDT (6/10) 3:43 AM CDT (6/10)
Length of Visible Light 15h 29m
Length of Day
14h 29m
Waxing Gibbous, 92% of the Moon is Illuminated
Jun 10
Waxing Gibbous
Jun 12
Full
Jun 19
Last Quarter
Jun 27
New
Jul 5
First Quarter

Hourly Weather History & Observations

Time (CDT) Temp. Dew Point Humidity Pressure Visibility Wind Dir Wind Speed Gust Speed Precip Events Conditions
12:50 AM 69.8 °F 69.8 °F 100% 29.79 in 10.0 mi SE 4.6 mph - N/A   Mostly Cloudy
1:50 AM 69.8 °F 69.8 °F 100% 29.81 in 5.0 mi SSE 6.9 mph - N/A Rain Light Rain
2:15 AM 69.8 °F 68.0 °F 94% 29.80 in 9.0 mi Variable 5.8 mph - N/A   Overcast
2:35 AM 69.8 °F 69.8 °F 100% 29.80 in 10.0 mi SSE 5.8 mph - N/A   Overcast
2:55 AM 69.8 °F 68.0 °F 94% 29.80 in 10.0 mi South 8.1 mph - N/A   Overcast
3:15 AM 69.8 °F 68.0 °F 94% 29.79 in 10.0 mi SSE 6.9 mph - N/A   Overcast
3:35 AM 69.8 °F 68.0 °F 94% 29.77 in 10.0 mi SSE 5.8 mph - N/A   Overcast
3:55 AM 69.8 °F 69.8 °F 100% 29.79 in 10.0 mi SSE 5.8 mph - N/A   Overcast
4:15 AM 69.8 °F 69.8 °F 100% 29.78 in 10.0 mi SSE 5.8 mph - N/A   Overcast
4:35 AM 69.8 °F 69.8 °F 100% 29.78 in 10.0 mi Variable 4.6 mph - N/A   Overcast
4:55 AM 69.8 °F 69.8 °F 100% 29.77 in 10.0 mi SSE 4.6 mph - N/A   Overcast
5:30 AM 69.8 °F 69.8 °F 100% 29.77 in 10.0 mi SSE 5.8 mph - N/A   Mostly Cloudy
5:50 AM 69.8 °F 68.0 °F 94% 29.77 in 9.0 mi SE 5.8 mph - N/A   Overcast
6:50 AM 69.8 °F 69.8 °F 100% 29.75 in 10.0 mi SE 8.1 mph - N/A   Overcast
7:50 AM 69.8 °F 69.8 °F 100% 29.77 in 10.0 mi SE 8.1 mph - N/A   Overcast
8:50 AM 69.8 °F 69.8 °F 100% 29.78 in 10.0 mi SE 5.8 mph - N/A   Mostly Cloudy
9:50 AM 71.6 °F 69.8 °F 94% 29.77 in 10.0 mi SSE 8.1 mph - N/A   Overcast
10:50 AM 73.4 °F 69.8 °F 88% 29.77 in 10.0 mi South 6.9 mph - N/A   Overcast
11:50 AM 73.4 °F 69.8 °F 88% 29.77 in 10.0 mi SSE 16.1 mph - N/A   Overcast
12:13 PM 71.6 °F 68.0 °F 88% 29.78 in 2.5 mi SSE 10.4 mph - N/A Rain Light Rain
12:20 PM 71.6 °F 69.8 °F 94% 29.78 in 10.0 mi SSE 10.4 mph - N/A   Overcast
12:50 PM 73.4 °F 69.8 °F 88% 29.77 in 10.0 mi SSE 9.2 mph - N/A   Overcast
3:50 PM 78.8 °F 69.8 °F 74% 29.72 in 10.0 mi South 8.1 mph - N/A   Mostly Cloudy
4:50 PM 78.8 °F 69.8 °F 74% 29.71 in 10.0 mi South 8.1 mph - N/A   Mostly Cloudy
6:50 PM 75.2 °F 68.0 °F 78% 29.72 in 10.0 mi SSW 8.1 mph - N/A   Mostly Cloudy
7:50 PM 73.4 °F 66.2 °F 78% 29.71 in 10.0 mi SSW 8.1 mph - N/A   Mostly Cloudy
8:50 PM 73.4 °F 68.0 °F 83% 29.72 in 10.0 mi SSW 5.8 mph - N/A   Mostly Cloudy
9:50 PM 69.8 °F 66.2 °F 88% 29.73 in 10.0 mi Calm Calm - N/A   Scattered Clouds
10:50 PM 69.8 °F 69.8 °F 100% 29.73 in 10.0 mi SE 3.5 mph - N/A   Mostly Cloudy
11:50 PM 69.8 °F 69.8 °F 100% 29.74 in 10.0 mi WSW 6.9 mph - N/A   Overcast